Weather History for Blackwell, OK

Change the Weather History Date:

Tuesday, December 20, 2011

  Actual Average (KPNC) Record (KPNC)
Temperature  
Mean Temperature 38 °F -  
Max Temperature 44 °F 46 °F 67 °F (1949)
Min Temperature 32 °F 25 °F 10 °F (1951)
Degree Days  
Heating Degree Days 27    
Moisture  
Dew Point 37 °F    
Average Humidity 96    
Maximum Humidity 100    
Minimum Humidity 87    
Precipitation  
Precipitation 0.17 in - - ()
Sea Level Pressure  
Sea Level Pressure 29.85 in    
Wind  
Wind Speed 16 mph (North)    
Max Wind Speed 23 mph    
Max Gust Speed 32 mph    
Visibility 7 miles    
Events Rain    
Averages and records for this station are not official NWS values.
T = Trace of Precipitation, MM = Missing Value Source: NWS Daily Summary

Daily Weather History Graph

Daily Weather History Graph

Search for Another Location

Airport:

Trip Planner

Search our weather history database for the weather conditions in past years. The results will help you decide how hot, cold, wet, or windy it might be!

Date:

Astronomy

Dec. 20, 2011 Rise Set
Actual Time 7:37 AM CST 5:16 PM CST
Civil Twilight 7:08 AM CST 5:45 PM CST
Nautical Twilight 6:36 AM CST 6:17 PM CST
Astronomical Twilight 6:04 AM CST 6:49 PM CST
Moon 3:03 AM CST (12/20) 1:50 PM CST (12/20)
Length of Visible Light 10h 36m
Length of Day
9h 38m
Waning Crescent, 21% of the Moon is Illuminated
Dec 20
Waning Crescent
Dec 24
New
Jan 1
First Quarter
Jan 9
Full
Jan 16
Last Quarter

Hourly Weather History & Observations

Time (CST) Temp. Windchill Dew Point Humidity Pressure Visibility Wind Dir Wind Speed Gust Speed Precip Events Conditions
12:15 AM 44.6 °F 36.6 °F 44.6 °F 100% 29.85 in 5.0 mi ENE 19.6 mph 27.6 mph 0.01 in Rain Light Rain
12:35 AM 44.6 °F 36.6 °F 44.6 °F 100% 29.84 in 6.0 mi East 19.6 mph 25.3 mph 0.01 in   Overcast
12:55 AM 44.6 °F 37.2 °F 44.6 °F 100% 29.84 in 5.0 mi East 17.3 mph 28.8 mph 0.01 in   Overcast
1:15 AM 44.6 °F 38.4 °F 44.6 °F 100% 29.84 in 9.0 mi East 12.7 mph 21.9 mph N/A   Overcast
1:35 AM 44.6 °F 38.4 °F 44.6 °F 100% 29.84 in 7.0 mi East 12.7 mph 21.9 mph N/A   Overcast
1:55 AM 44.6 °F 37.4 °F 44.6 °F 100% 29.83 in 10.0 mi East 16.1 mph 20.7 mph N/A   Overcast
2:15 AM 44.6 °F 37.2 °F 44.6 °F 100% 29.83 in 10.0 mi East 17.3 mph - N/A   Overcast
2:35 AM 44.6 °F 37.4 °F 44.6 °F 100% 29.82 in 7.0 mi East 16.1 mph - N/A   Overcast
2:55 AM 44.6 °F 38.4 °F 44.6 °F 100% 29.82 in 8.0 mi ENE 12.7 mph 17.3 mph N/A   Overcast
3:15 AM 44.6 °F 38.8 °F 44.6 °F 100% 29.82 in 7.0 mi NE 11.5 mph - N/A   Overcast
3:35 AM 42.8 °F 35.8 °F 42.8 °F 100% 29.83 in 3.0 mi NE 13.8 mph - N/A Rain Light Rain
3:55 AM 42.8 °F 36.6 °F 42.8 °F 100% 29.82 in 3.0 mi NE 11.5 mph 18.4 mph N/A   Overcast
4:15 AM 42.8 °F 36.2 °F 41.0 °F 93% 29.81 in 4.0 mi NE 12.7 mph 17.3 mph N/A Rain Light Rain
4:35 AM 42.8 °F 36.6 °F 41.0 °F 93% 29.81 in 2.5 mi NE 11.5 mph - N/A Rain Light Rain
4:55 AM 42.8 °F 36.6 °F 42.8 °F 100% 29.81 in 2.5 mi NE 11.5 mph - N/A Rain Light Rain
5:15 AM 42.8 °F 37.5 °F 42.8 °F 100% 29.81 in 3.0 mi NE 9.2 mph - N/A Rain Light Rain
5:35 AM 42.8 °F 36.2 °F 42.8 °F 100% 29.81 in 3.0 mi NE 12.7 mph - N/A Rain Light Rain
5:55 AM 41.0 °F 33.9 °F 41.0 °F 100% 29.81 in 3.0 mi NE 12.7 mph 18.4 mph N/A Rain Light Rain
6:15 AM 41.0 °F 33.5 °F 41.0 °F 100% 29.81 in 5.0 mi NE 13.8 mph 19.6 mph N/A   Overcast
6:55 AM 41.0 °F 33.5 °F 41.0 °F 100% 29.82 in 10.0 mi NNE 13.8 mph - N/A   Overcast
7:15 AM 41.0 °F 33.5 °F 41.0 °F 100% 29.83 in 9.0 mi NNE 13.8 mph - N/A   Overcast
7:55 AM 41.0 °F 33.5 °F 39.2 °F 93% 29.84 in 10.0 mi NNE 13.8 mph - 0.01 in   Overcast
8:15 AM 39.2 °F 29.6 °F 39.2 °F 100% 29.84 in 10.0 mi North 19.6 mph 26.5 mph N/A   Overcast
8:35 AM 39.2 °F 29.3 °F 37.4 °F 93% 29.84 in 10.0 mi North 20.7 mph 26.5 mph N/A   Overcast
8:55 AM 39.2 °F 28.7 °F 37.4 °F 93% 29.85 in 5.0 mi North 23.0 mph 28.8 mph N/A   Overcast
9:15 AM 37.4 °F 27.2 °F 35.6 °F 93% 29.85 in 2.5 mi North 19.6 mph 24.2 mph N/A Rain Light Rain
9:35 AM 37.4 °F 26.4 °F 35.6 °F 93% 29.85 in 1.2 mi North 23.0 mph 32.2 mph N/A Rain Light Rain
10:15 AM 37.4 °F 26.6 °F 35.6 °F 93% 29.86 in 3.0 mi North 21.9 mph 28.8 mph N/A   Overcast
10:55 AM 37.4 °F 27.2 °F 35.6 °F 93% 29.85 in 8.0 mi North 19.6 mph 27.6 mph N/A   Overcast
11:15 AM 35.6 °F 24.0 °F 35.6 °F 100% 29.85 in 10.0 mi North 23.0 mph 28.8 mph N/A   Overcast
11:35 AM 35.6 °F 25.2 °F 35.6 °F 100% 29.85 in 10.0 mi North 18.4 mph 23.0 mph N/A   Overcast
11:55 AM 35.6 °F 24.5 °F 33.8 °F 93% 29.85 in 3.0 mi North 20.7 mph 25.3 mph 0.01 in Rain Rain
12:15 PM 35.6 °F 25.9 °F 33.8 °F 93% 29.86 in 4.0 mi North 16.1 mph 23.0 mph 0.01 in Rain Light Rain
12:35 PM 35.6 °F 25.2 °F 33.8 °F 93% 29.85 in 5.0 mi North 18.4 mph - 0.02 in Rain Light Rain
12:55 PM 35.6 °F 26.2 °F 33.8 °F 93% 29.85 in 2.5 mi North 15.0 mph 20.7 mph 0.05 in Rain Rain
1:15 PM 35.6 °F 25.5 °F 33.8 °F 93% 29.84 in 5.0 mi North 17.3 mph - 0.01 in Rain Light Rain
1:35 PM 35.6 °F 26.2 °F 33.8 °F 93% 29.85 in 9.0 mi NNW 15.0 mph 23.0 mph 0.01 in Rain Light Rain
1:55 PM 35.6 °F 26.2 °F 33.8 °F 93% 29.86 in 2.0 mi NNW 15.0 mph - 0.04 in Rain Light Rain
2:15 PM 35.6 °F 26.2 °F 33.8 °F 93% 29.86 in 2.5 mi NW 15.0 mph - 0.03 in Rain Light Rain
2:35 PM 35.6 °F 25.9 °F 33.8 °F 93% 29.85 in 3.0 mi NNW 16.1 mph 20.7 mph 0.04 in Rain Light Rain
2:55 PM 35.6 °F 25.2 °F 33.8 °F 93% 29.84 in 3.0 mi NNW 18.4 mph 24.2 mph 0.05 in Rain Light Rain
3:15 PM 35.6 °F 26.2 °F 32.0 °F 87% 29.84 in 8.0 mi NW 15.0 mph 23.0 mph N/A Rain Light Rain
3:35 PM 35.6 °F 25.5 °F 32.0 °F 87% 29.84 in 10.0 mi NNW 17.3 mph - N/A   Mostly Cloudy
3:55 PM 35.6 °F 25.9 °F 32.0 °F 87% 29.84 in 10.0 mi NW 16.1 mph 23.0 mph N/A   Overcast
4:15 PM 35.6 °F 26.2 °F 32.0 °F 87% 29.85 in 10.0 mi NNW 15.0 mph - N/A   Overcast
4:35 PM 35.6 °F 25.9 °F 32.0 °F 87% 29.85 in 10.0 mi NNW 16.1 mph - N/A   Overcast
4:55 PM 33.8 °F 24.8 °F 32.0 °F 93% 29.86 in 10.0 mi NNW 12.7 mph - N/A   Overcast
5:15 PM 33.8 °F 24.3 °F 32.0 °F 93% 29.87 in 5.0 mi NW 13.8 mph 17.3 mph N/A   Overcast
5:35 PM 33.8 °F 26.4 °F 32.0 °F 93% 29.88 in 7.0 mi NW 9.2 mph - N/A   Overcast
5:55 PM 32.0 °F 22.5 °F 32.0 °F 100% 29.90 in 7.0 mi NW 12.7 mph - N/A   Overcast
6:15 PM 32.0 °F 23.0 °F 32.0 °F 100% 29.90 in 9.0 mi WNW 11.5 mph - N/A   Overcast
6:35 PM 32.0 °F 24.2 °F 32.0 °F 100% 29.90 in 10.0 mi WNW 9.2 mph - N/A   Overcast
6:55 PM 32.0 °F 23.6 °F 30.2 °F 93% 29.89 in 10.0 mi NW 10.4 mph - N/A   Overcast
7:15 PM 32.0 °F 24.2 °F 32.0 °F 100% 29.89 in 10.0 mi NW 9.2 mph - N/A   Overcast
7:35 PM 32.0 °F 22.5 °F 30.2 °F 93% 29.90 in 10.0 mi NW 12.7 mph - N/A   Overcast
7:55 PM 32.0 °F 24.2 °F 30.2 °F 93% 29.90 in 10.0 mi WNW 9.2 mph - N/A   Overcast
8:15 PM 32.0 °F 24.2 °F 32.0 °F 100% 29.90 in 10.0 mi West 9.2 mph - N/A   Overcast
8:35 PM 32.0 °F 24.8 °F 30.2 °F 93% 29.90 in 10.0 mi West 8.1 mph - N/A   Overcast
8:55 PM 32.0 °F 25.6 °F 32.0 °F 100% 29.91 in 10.0 mi West 6.9 mph - N/A   Overcast
9:15 PM 32.0 °F 24.2 °F 32.0 °F 100% 29.91 in 10.0 mi WNW 9.2 mph - N/A   Overcast
9:35 PM 32.0 °F 24.2 °F 32.0 °F 100% 29.91 in 10.0 mi WNW 9.2 mph - N/A   Overcast
9:55 PM 32.0 °F 24.8 °F 32.0 °F 100% 29.91 in 10.0 mi WNW 8.1 mph - N/A   Overcast
10:35 PM 32.0 °F 24.8 °F 30.2 °F 93% 29.91 in 10.0 mi WNW 8.1 mph - N/A   Overcast
10:55 PM 32.0 °F 25.6 °F 30.2 °F 93% 29.91 in 10.0 mi WNW 6.9 mph - N/A   Overcast
11:15 PM 32.0 °F 26.4 °F 32.0 °F 100% 29.91 in 10.0 mi WSW 5.8 mph - N/A   Overcast
11:35 PM 33.8 °F 27.7 °F 32.0 °F 93% 29.91 in 10.0 mi West 6.9 mph - N/A   Overcast
11:55 PM 33.8 °F 26.4 °F 30.2 °F 87% 29.92 in 10.0 mi West 9.2 mph - N/A   Overcast